Date,TemperatureHighF,TemperatureAvgF,TemperatureLowF,DewpointHighF,DewpointAvgF,DewpointLowF,HumidityHigh,HumidityAvg,HumidityLow,PressureMaxIn,PressureMinIn,WindSpeedMaxMPH,WindSpeedAvgMPH,GustSpeedMaxMPH,PrecipitationSumIn
2012-1-16,36.5,32.6,27.6,0.0,0.0,0.0,0,0,100,0.00,0.00,13,4,19,0.00
2012-1-17,42.5,35.0,29.8,0.0,0.0,0.0,0,0,100,0.00,0.00,12,3,16,0.00
2012-1-18,32.8,30.1,27.5,0.0,0.0,0.0,0,0,100,0.00,0.00,12,4,16,0.00
2012-1-19,29.5,28.5,27.4,0.0,0.0,0.0,0,0,100,0.00,0.00,10,3,12,0.00
2012-1-20,39.5,34.8,29.4,0.0,0.0,0.0,0,0,100,0.00,0.00,6,1,10,0.00
2012-1-21,51.6,41.9,37.8,0.0,0.0,0.0,0,0,100,0.00,0.00,21,6,25,0.00
2012-1-22,43.9,39.1,33.9,0.0,0.0,0.0,0,0,100,0.00,0.00,12,2,14,0.00
2012-1-24,51.5,46.3,40.2,0.0,0.0,0.0,0,0,100,0.00,0.00,20,4,25,0.00
2012-1-25,52.6,44.2,40.1,0.0,0.0,0.0,0,0,100,0.00,0.00,18,4,26,0.00
2012-1-26,61.4,43.2,32.5,0.0,0.0,0.0,0,0,100,0.00,0.00,15,3,18,0.00
2012-1-27,57.5,37.5,28.1,0.0,0.0,0.0,0,0,100,0.00,0.00,6,1,7,0.00
2012-1-28,47.2,40.0,33.7,0.0,0.0,0.0,0,0,100,0.00,0.00,7,2,9,0.00
2012-1-29,49.4,45.8,39.4,0.0,0.0,0.0,0,0,100,0.00,0.00,16,4,19,0.00
2012-1-30,56.8,46.6,42.7,0.0,0.0,0.0,0,0,100,0.00,0.00,11,3,16,0.00
2012-1-31,58.4,46.7,42.3,0.0,0.0,0.0,0,0,100,0.00,0.00,13,3,15,0.00
2012-2-1,59.9,44.3,35.4,0.0,0.0,0.0,0,0,100,0.00,0.00,11,2,13,0.00
2012-2-2,51.2,41.4,34.0,0.0,0.0,0.0,0,0,100,0.00,0.00,6,1,8,0.00
2012-2-3,69.5,48.3,32.9,0.0,0.0,0.0,0,0,100,0.00,0.00,15,3,17,0.00
2012-2-4,68.9,47.4,31.2,0.0,0.0,0.0,0,0,100,0.00,0.00,10,2,12,0.00
2012-2-5,65.2,43.9,30.2,0.0,0.0,0.0,0,0,100,0.00,0.00,8,2,9,0.00
2012-2-6,67.1,45.7,30.2,0.0,0.0,0.0,0,0,100,0.00,0.00,9,1,9,0.00
2012-2-7,72.2,50.0,32.9,0.0,0.0,0.0,0,0,100,0.00,40.00,10,3,11,0.00
2012-2-8,53.3,46.6,40.7,0.0,0.0,0.0,0,0,100,0.00,40.00,6,2,8,0.00
2012-2-9,51.2,47.2,42.5,0.0,0.0,0.0,0,0,100,0.00,0.00,8,1,9,0.00
2012-2-10,57.3,48.9,43.0,0.0,0.0,0.0,0,0,100,0.00,0.00,10,2,13,0.00
2012-2-11,54.6,46.2,42.9,0.0,0.0,0.0,0,0,100,0.00,0.00,11,3,13,0.00
2012-2-12,52.1,45.1,41.7,0.0,0.0,0.0,0,0,100,0.00,0.00,6,1,8,0.00
2012-2-13,49.1,43.6,41.3,0.0,0.0,0.0,0,0,100,0.00,0.00,8,2,10,0.00
2012-2-14,57.9,40.5,32.0,0.0,0.0,0.0,0,0,100,0.00,0.00,10,2,11,0.00
2012-2-15,61.0,41.8,33.3,0.0,0.0,0.0,0,0,100,0.00,0.00,6,2,9,0.00
2012-2-16,48.2,42.4,36.5,0.0,0.0,0.0,0,0,100,0.00,0.00,8,2,9,0.00
2012-2-17,55.0,44.9,40.2,0.0,0.0,0.0,0,0,100,0.00,0.00,12,3,17,0.00
2012-2-18,50.7,41.7,38.1,0.0,0.0,0.0,0,0,100,0.00,0.00,17,5,23,0.00
2012-2-19,53.0,42.3,35.5,0.0,0.0,0.0,0,0,100,0.00,0.00,11,3,15,0.00
2012-2-20,49.1,42.1,34.4,0.0,0.0,0.0,0,0,100,0.00,0.00,8,2,10,0.00
2012-2-21,51.3,49.1,45.4,0.0,0.0,0.0,0,0,100,0.00,0.00,17,5,22,0.00
2012-2-22,63.4,48.0,37.8,0.0,0.0,0.0,0,0,100,0.00,0.00,16,4,24,0.00
2012-2-23,57.4,43.6,37.3,0.0,0.0,0.0,0,0,100,0.00,0.00,8,3,10,0.00
2012-2-24,46.0,42.7,39.8,0.0,0.0,0.0,0,0,100,0.00,0.00,10,3,14,0.00
2012-2-25,55.5,41.7,34.4,0.0,0.0,0.0,0,0,100,0.00,0.00,13,3,16,0.00
2012-2-26,56.8,39.4,32.9,0.0,0.0,0.0,0,0,100,0.00,0.00,12,3,13,0.00
2012-2-27,58.1,38.7,28.3,0.0,0.0,0.0,0,0,100,0.00,0.00,10,2,12,0.00
2012-2-28,51.6,38.9,31.2,0.0,0.0,0.0,0,0,100,0.00,0.00,15,3,18,0.00
2012-2-29,43.7,37.9,33.0,0.0,0.0,0.0,0,0,100,0.00,0.00,18,5,20,0.00
2012-3-1,57.2,41.4,34.6,0.0,0.0,0.0,0,0,100,0.00,0.00,10,2,11,0.00
2012-3-2,47.0,42.9,39.5,0.0,0.0,0.0,0,0,100,0.00,0.00,10,3,14,0.00
2012-3-3,66.1,51.0,45.4,0.0,0.0,0.0,0,0,100,0.00,0.00,17,4,20,0.00
2012-3-4,63.5,49.1,45.5,0.0,0.0,0.0,0,0,100,0.00,0.00,13,4,16,0.00
2012-3-5,58.2,44.3,32.9,0.0,0.0,0.0,0,0,100,0.00,0.00,16,4,23,0.00
2012-3-6,53.8,39.8,29.1,0.0,0.0,0.0,0,0,100,0.00,0.00,14,3,16,0.00
2012-3-7,57.1,40.7,25.9,0.0,0.0,0.0,0,0,100,0.00,0.00,7,2,8,0.00
2012-3-8,73.8,49.6,32.2,0.0,0.0,0.0,0,0,100,0.00,0.00,8,2,9,0.00
2012-3-9,54.4,46.6,41.2,0.0,0.0,0.0,0,0,100,0.00,0.00,10,3,12,0.00
2012-8-16,89.7,75.7,66.4,0.0,0.0,0.0,0,0,100,0.00,0.00,6,1,8,0.00
2012-8-17,99.7,77.5,58.7,0.0,0.0,0.0,0,0,100,0.00,0.00,7,2,10,0.00
2012-8-18,78.3,66.4,59.3,0.0,0.0,0.0,0,0,100,0.00,0.00,9,2,11,0.00
2012-8-19,86.0,68.3,58.8,0.0,0.0,0.0,0,0,100,0.00,0.00,7,2,8,0.00
2012-8-20,90.4,70.9,56.5,0.0,0.0,0.0,0,0,100,0.00,0.00,8,2,8,0.00
2012-8-21,88.2,67.4,54.7,0.0,0.0,0.0,0,0,100,0.00,0.00,10,2,10,0.00
2012-8-22,82.3,66.2,58.3,0.0,0.0,0.0,0,0,100,0.00,0.00,9,3,11,0.00
2012-8-23,79.7,63.2,57.2,0.0,0.0,0.0,0,0,100,0.00,0.00,11,4,12,0.00
2012-8-24,79.4,63.6,48.2,0.0,0.0,0.0,0,0,100,0.00,0.00,10,3,13,0.00
2012-8-25,83.1,66.9,51.6,0.0,0.0,0.0,0,0,100,0.00,0.00,9,3,10,0.00
2012-8-26,82.5,65.2,54.0,0.0,0.0,0.0,0,0,100,0.00,0.00,9,2,10,0.00
2012-8-27,87.9,69.1,52.5,0.0,0.0,0.0,0,0,100,0.00,0.00,8,2,10,0.00
2012-8-28,88.2,65.9,54.2,0.0,0.0,0.0,0,0,100,0.00,0.00,8,2,10,0.00
2012-8-29,87.8,66.0,55.3,0.0,0.0,0.0,0,0,100,0.00,0.00,6,2,7,0.00
2012-8-30,84.9,65.9,56.3,0.0,0.0,0.0,0,0,100,0.00,0.00,9,2,11,0.00
2012-8-31,81.9,65.3,49.4,0.0,0.0,0.0,0,0,100,0.00,0.00,8,3,8,0.00
2012-9-1,86.3,64.6,48.0,0.0,0.0,0.0,0,0,100,0.00,0.00,7,2,9,0.00
2012-9-2,83.1,64.8,50.1,0.0,0.0,0.0,0,0,100,0.00,0.00,7,2,8,0.00
2012-9-3,78.8,64.7,54.8,0.0,0.0,0.0,0,0,100,0.00,0.00,10,3,12,0.00
2012-9-4,82.6,65.6,50.5,0.0,0.0,0.0,0,0,100,0.00,0.00,10,2,11,0.00
2012-9-5,85.9,67.3,51.3,0.0,0.0,0.0,0,0,100,0.00,0.00,9,2,12,0.00
2012-9-6,87.0,70.5,57.5,0.0,0.0,0.0,0,0,100,0.00,0.00,10,4,13,0.00
2012-9-7,92.4,72.8,54.4,0.0,0.0,0.0,0,0,100,0.00,0.00,9,2,10,0.00
2012-9-8,94.4,70.7,54.2,0.0,0.0,0.0,0,0,100,0.00,0.00,8,2,11,0.00
2012-9-9,76.8,63.3,58.1,0.0,0.0,0.0,0,0,100,0.00,0.00,11,4,16,0.00
2012-9-10,84.0,61.8,50.9,0.0,0.0,0.0,0,0,100,0.00,0.00,11,4,13,0.00
2012-9-11,74.0,60.4,50.8,0.0,0.0,0.0,0,0,100,0.00,0.00,12,4,14,0.00
2012-9-12,75.1,60.1,47.4,0.0,0.0,0.0,0,0,100,0.00,0.00,12,4,15,0.00
2012-9-13,55.8,55.6,55.5,0.0,0.0,0.0,0,0,100,0.00,0.00,5,3,6,0.00
2012-11-8,37.3,36.8,36.4,0.0,0.0,0.0,0,0,100,0.00,0.00,2,1,2,0.00
2012-11-9,57.4,42.8,32.2,0.0,0.0,0.0,0,0,100,0.00,0.00,11,2,15,0.00
2012-11-10,57.0,38.4,28.9,0.0,0.0,0.0,0,0,100,0.00,0.00,10,1,10,0.00
2012-11-11,48.4,40.0,32.0,0.0,0.0,0.0,0,0,100,0.00,0.00,6,1,8,0.00
2012-11-12,57.7,47.8,42.2,0.0,0.0,0.0,0,0,100,0.00,0.00,8,2,9,0.00
2012-11-13,53.5,48.8,46.2,0.0,0.0,0.0,0,0,100,0.00,0.00,7,2,8,0.00
2012-11-14,60.6,47.9,38.9,0.0,0.0,0.0,0,0,100,0.00,0.00,6,2,7,0.00
2012-11-15,61.8,44.9,36.2,0.0,0.0,0.0,0,0,100,0.00,0.00,6,2,8,0.00
2012-11-16,49.8,42.7,36.7,0.0,0.0,0.0,0,0,100,0.00,0.00,6,2,7,0.00
2012-11-17,54.6,46.2,42.1,0.0,0.0,0.0,0,0,100,0.00,0.00,15,3,16,0.00
2012-11-18,50.6,45.0,42.0,0.0,0.0,0.0,0,0,100,0.00,0.00,10,3,12,0.00
2012-11-19,54.4,49.8,46.5,0.0,0.0,0.0,0,0,100,0.00,0.00,17,4,22,0.00
2012-11-20,56.6,46.3,40.2,0.0,0.0,0.0,0,0,100,0.00,0.00,14,2,17,0.00
2012-11-21,52.2,43.4,39.3,0.0,0.0,0.0,0,0,100,0.00,0.00,13,3,16,0.00
2012-11-22,49.4,41.9,34.5,0.0,0.0,0.0,0,0,100,0.00,0.00,4,1,4,0.00
2012-11-23,48.7,45.5,42.2,0.0,0.0,0.0,0,0,100,0.00,0.00,7,1,8,0.00
2012-11-24,61.2,46.2,37.7,0.0,0.0,0.0,0,0,100,0.00,0.00,6,1,7,0.00
2012-11-25,57.8,41.4,35.7,0.0,0.0,0.0,0,0,100,0.00,0.00,10,2,11,0.00
2012-11-26,58.1,41.4,33.1,0.0,0.0,0.0,0,0,100,0.00,0.00,8,2,9,0.00
2012-11-27,57.0,41.6,32.9,0.0,0.0,0.0,0,0,100,0.00,0.00,5,1,5,0.00
2012-11-28,47.5,42.4,35.8,0.0,0.0,0.0,0,0,100,0.00,0.00,7,1,9,0.00
2012-11-29,55.7,48.7,43.5,0.0,0.0,0.0,0,0,100,0.00,0.00,10,2,12,0.00
2012-11-30,59.1,48.9,44.8,0.0,0.0,0.0,0,0,100,0.00,0.00,10,2,14,0.00
2012-12-1,59.7,49.1,45.7,0.0,0.0,0.0,0,0,100,0.00,0.00,16,4,17,0.00
2012-12-2,49.0,45.4,43.5,0.0,0.0,0.0,0,0,100,0.00,0.00,14,4,21,0.00
2012-12-3,50.9,46.6,43.5,0.0,0.0,0.0,0,0,100,0.00,0.00,12,3,15,0.00
2012-12-4,58.9,48.8,44.5,0.0,0.0,0.0,0,0,100,0.00,0.00,13,3,15,0.00
2012-12-5,57.1,45.4,40.4,0.0,0.0,0.0,0,0,100,0.00,0.00,14,4,17,0.00
2012-12-6,47.4,42.9,38.8,0.0,0.0,0.0,0,0,100,0.00,0.00,12,3,13,0.00
2012-12-7,47.2,42.7,37.3,0.0,0.0,0.0,0,0,100,0.00,0.00,13,3,16,0.00
2012-12-8,52.2,40.3,36.5,0.0,0.0,0.0,0,0,100,0.00,0.00,9,2,10,0.00
2012-12-9,43.2,40.3,37.6,0.0,0.0,0.0,0,0,100,0.00,0.00,5,2,7,0.00
2012-12-10,46.6,43.9,41.9,0.0,0.0,0.0,0,0,100,0.00,0.00,6,2,7,0.00
2012-12-11,47.8,43.9,42.7,0.0,0.0,0.0,0,0,100,0.00,0.00,10,3,12,0.00
2012-12-12,45.0,42.1,40.5,0.0,0.0,0.0,0,0,100,0.00,0.00,5,1,6,0.00
2012-12-13,47.4,41.6,39.2,0.0,0.0,0.0,0,0,100,0.00,0.00,8,2,8,0.00
2012-12-14,57.7,39.7,33.2,0.0,0.0,0.0,0,0,100,0.00,0.00,9,2,9,0.00
2012-12-15,40.1,36.5,30.4,0.0,0.0,0.0,0,0,100,0.00,0.00,11,3,14,0.00
2012-12-16,44.2,39.3,37.7,0.0,0.0,0.0,0,0,100,0.00,0.00,12,4,14,0.00
2012-12-17,53.8,41.7,35.0,0.0,0.0,0.0,0,0,100,0.00,0.00,18,5,23,0.00
2012-12-18,48.7,37.0,33.0,0.0,0.0,0.0,0,0,100,0.00,0.00,10,3,13,0.00
2012-12-19,46.1,38.6,32.2,0.0,0.0,0.0,0,0,100,0.00,0.00,14,3,18,0.00
2012-12-20,50.1,39.2,30.4,0.0,0.0,0.0,0,0,100,0.00,0.00,10,2,16,0.00
2012-12-21,58.5,37.6,28.5,0.0,0.0,0.0,0,0,100,0.00,0.00,6,1,7,0.00
2012-12-22,57.0,41.7,36.5,0.0,0.0,0.0,0,0,100,0.00,0.00,11,2,15,0.00
2012-12-23,49.2,40.6,37.5,0.0,0.0,0.0,0,0,100,0.00,0.00,8,1,11,0.00
2012-12-24,50.1,40.4,36.8,0.0,0.0,0.0,0,0,100,0.00,0.00,7,1,9,0.00
2012-12-25,42.1,38.4,35.8,0.0,0.0,0.0,0,0,100,0.00,0.00,14,2,15,0.00
2012-12-26,46.0,41.4,37.2,0.0,0.0,0.0,0,0,100,0.00,0.00,12,3,14,0.00
2012-12-27,46.4,42.1,39.3,0.0,0.0,0.0,0,0,100,0.00,0.00,8,2,8,0.00
2012-12-28,55.0,43.0,37.5,0.0,0.0,0.0,0,0,100,0.00,0.00,4,1,5,0.00
2012-12-29,44.2,39.3,37.5,0.0,0.0,0.0,0,0,100,0.00,0.00,5,1,5,0.00
2012-12-30,60.3,37.1,29.9,0.0,0.0,0.0,0,0,100,0.00,0.00,7,1,7,0.00
2012-12-31,39.7,34.2,28.9,0.0,0.0,0.0,0,0,100,0.00,0.00,7,1,9,0.00
2013-1-1,55.2,35.1,25.2,0.0,0.0,0.0,0,0,100,0.00,0.00,6,1,7,0.00